Regional Weather Roundup
Issued by NWS

Home | Current Version | Previous Version | Text Only | Print | Product List | Glossary On
Versions: 1 2 3 4 5 6 7 8 9 10 11 12 13 14 15 16 17 18 19 20 21 22 23 24 25 26 27 28 29 30 31 32 33 34 35 36 37 38 39 40 41 42 43 44 45 46 47 48 49 50
000
ASHW40 PHFO 260712
RWRHI

WEATHER ROUNDUP FOR HAWAII
NATIONAL WEATHER SERVICE HONOLULU HI
900 PM HST SAT MAR 25 2017

THIS IS AN AUTOMATED REPORT THAT HAS NOT BEEN QUALITY CONTROLLED.

NOTE..."FAIR" INDICATES FEW OR NO CLOUDS BELOW 12,000 FEET WITH NO
SIGNIFICANT WEATHER AND/OR OBSTRUCTIONS TO VISIBILITY.

* - THESE SITES REPORT LIMITED FIELDS

HIZ001>004-260800-
KAUAI-NIIHAU-

CITY           SKY/WX    TMP DP  RH WIND       PRES   REMARKS
LIHUE APT      CLOUDY    75  67  76 NE13      30.24R
PORT ALLEN*      N/A     73 N/A N/A E13         N/A
POIPU*           N/A     75 N/A N/A NE9G16      N/A
PRINCEVILLE*     N/A     72 N/A N/A SE5         N/A
KOKOLE POINT*  NOT AVBL
MOLOAA DAIRY*    N/A     73  66  78 E5G10       N/A
WAIMEA HTS*    NOT AVBL
PUU OPAE*      NOT AVBL
PUU LUA*       NOT AVBL
MAKAHA RIDGE*  NOT AVBL
$$

HIZ005>011-260800-
OAHU-

CITY           SKY/WX    TMP DP  RH WIND       PRES   REMARKS
HONOLULU       PTCLDY    77  64  64 NE10      30.19R
KALAELOA       CLEAR     76  64  66 NE6       30.20S
KANEOHE MCB    NOT AVBL
WHEELER FIELD  NOT AVBL
BELLOWS*       NOT AVBL
KAHUKU*        NOT AVBL
WHEELER*       NOT AVBL
WAIANAE HARBOR NOT AVBL
DILLINGHAM*      N/A     88  82  84 NW1         N/A  HX 108
KAHUKU TRN*      N/A     72  66  83 W9G24       N/A
KAWAILOA*        N/A     70  63  78 E6G18       N/A
KII*             N/A     75  68  78 E17G23      N/A
MAKUA RANGE*     N/A     64  59  82 NW5         N/A
OAHU FOREST NW NOT AVBL
SCHOFIELD BRK*   N/A     81  72  74 MISG        N/A
SCHOFIELD S*   NOT AVBL
WAIANAE VLY*   NOT AVBL
KUAOKALA*      NOT AVBL
HONOULIUULI*   NOT AVBL
MOKUOLOE IS*   NOT AVBL
PALEHUA*       NOT AVBL
WAIAWA PHB*    NOT AVBL
$$

HIZ012>013-260800-
MOLOKAI-

CITY           SKY/WX    TMP DP  RH WIND       PRES   REMARKS
MOLOKAI AIRPT  CLEAR     74  65  73 NE14G23   30.19R
KALAUPAPA      NOT AVBL
MAKAPULAPAI*   NOT AVBL
MOLOKAI 1*     NOT AVBL
PUU ALII*      NOT AVBL
$$

HIZ016-260800-
KAHOOLAWE-

CITY           SKY/WX    TMP DP  RH WIND       PRES   REMARKS
KAHOOLAWE*     NOT AVBL
HAKIOAWA*      NOT AVBL
HONOKANAIA*      N/A     75  64  67 NE15G26     N/A
KANELOA*         N/A     73  66  78 E22G35    30.21
KEALIALALO*    NOT AVBL
LUA MAKIKA*    NOT AVBL
$$

HIZ014>015-260800-
LANAI-

CITY           SKY/WX    TMP DP  RH WIND       PRES   REMARKS
LANAI CITY     FAIR      69  64  84 NE14      30.23R
LANAI 1*       NOT AVBL
$$

HIZ017>028-260800-
MAUI-

CITY           SKY/WX    TMP DP  RH WIND       PRES   REMARKS
KAHULUI        PTCLDY    75  65  70 E14G23    30.17R
KAPALUA-W MAUI NOT AVBL
HANA AIRPORT   CLOUDY    75  66  73 E2        30.26R
HANA*            N/A     75 N/A N/A E6G13       N/A
HALEAKALA SUMM   N/A     43  19  39 E30G45      N/A
MAALAEA BAY*   NOT AVBL
HALEAKALA*     NOT AVBL
KAUPO GAP*     NOT AVBL
KULA 1*          N/A    N/A N/A N/A NE7G14      N/A
$$

HIZ023>026-260800-
BIG ISLAND OF HAWAII COAST AND LOWER SLOPES-

CITY           SKY/WX    TMP DP  RH WIND       PRES   REMARKS
KAILUA KONA    PTCLDY    77  66  68 SE6       30.14R
HILO           PTCLDY    72  67  84 S3        30.22R
HONOKAA*         N/A     66 N/A N/A VRB1        N/A
KAWAIHAE MWT*    N/A     79 N/A N/A N2          N/A
KAWAIHAE*      NOT AVBL
SOUTH POINT*     N/A     70 N/A N/A N17G29      N/A
UPOLU AIRPORT* NOT AVBL
KAMUELA*       SUNNY     61  57  88 SE12      30.25R
HAKALAU*         N/A    N/A N/A N/A SW6         N/A
KALOKO-HONOKO* NOT AVBL
PALI 2*          N/A     68  39  34 S13G21      N/A
KEALAKOMO*       N/A     75  63  64 N20G29      N/A
KAUPULEHU*     NOT AVBL
KAPAPALA*        N/A     59  54  84 NW6         N/A
LOWER KAHUKU*  NOT AVBL
PUHE CS*       NOT AVBL
PUHO CS*       NOT AVBL
PTA KEAMUKU*     N/A     61  55  82 CALM        N/A
WAIKOLOA*      NOT AVBL
$$

HIZ027>028-260800-
BIG ISLAND OF HAWAII INTERIOR AND SUMMMITS-

CITY           SKY/WX    TMP DP  RH WIND       PRES   REMARKS
BRADSHAW FIELD CLEAR     61  25  25 SE7       30.48R
MK VISITOR CEN   N/A     46  16  29 E21         N/A
MAUNA KEA*       N/A     32   1  27 NE30        N/A  WCI  18
MAUNA LOA*       N/A     41   3  20 MISG        N/A
MAUNA LOA 1*   NOT AVBL
PTA KIPUKA*      N/A    N/A N/A N/A E22G35      N/A
PTA RANGE 17*    N/A     75  36  23 SE22G37     N/A
PTA WEST*        N/A    N/A N/A N/A E16G30      N/A
NENE CABIN*    NOT AVBL
AHUMOA*        NOT AVBL
PTA PORTABLE*  NOT AVBL
PUU MALI*        N/A    N/A N/A N/A E24G43      N/A
$$

HIC003-260800-
NORTHWEST ISLANDS-

CITY           SKY/WX    TMP DP  RH WIND       PRES   REMARKS
MIDWAY ISLAND  MOCLDY    72  68  88 S3        30.13R
MIDWAY NOS*    NOT AVBL
FRENCH FRIGATE NOT AVBL
$$

PHZ110>124-180-260800-
BUOY REPORTS

STATION/POSITION TIME  TEMP    WIND        PRES    WAVE   SWELL
                       AIR SEA DIR/SP/G            HT/PER HT/DIR
                 (UTC) (F)     (DEG/KT/KT) (MB)    (FT/S) (FT/D)
BUOY 51001       0650   75 76  100/ 12/ 17 1023.5R  13/17  13/300
BUOY 51101       0650   76 76   90/ 14/ 16 1023.8R  11/17  10/280
BUOY 51100       NOT AVBL
BUOY 51002       0650   78 78   80/ 21/ 25 1019.8R  10/21   8/270
BUOY 51003       0650   77 78   70/ 12/ 17 1021.1R  10/19   8/270
BUOY 51004       0550      77   60/ 19/ 23 1019.7    9/ 9   5/100
BARBERS PT BUOY  NOT AVBL
WAIMEA BAY BUOY  0602      75                N/A     7/18   7/310
KAILUA BAY BUOY  0634      76                N/A     6/ 7   2/ 20
LANAI BUOY       0645      79                N/A     4/20   2/260
BARBERS PT 2     NOT AVBL
PAUWELA MAUI     0639      76                N/A     6/20   3/340
HILO             0642      78                N/A     6/ 9   3/ 10
KANEOHE BAY BUOY 0655      75                N/A     5/ 7   2/ 10
HANALEI KAUAI    0652      77                N/A     8/18   7/300
KAHULUI HARBOR   0636   76 78   60/ 14/ 21 1022.0R
HONOLULU HARBOR  0648   77 78   50/  6/  9 1023.1R
KILO NALU        NOT AVBL
HILO HARBOR      0636   75 76  150/  2/  3 1023.1R
MOKUOLOE         0636   76 79   90/  8/ 14 1022.8R
NAWILIWILI       0648   75      50/ 10/ 15 1023.3R
WHOTS BUOY       NOT AVBL
BUOY 51028       NOT AVBL
$$

......................KEY........................................
  SKY/WX - SKY CONDITIONS/PRESENT WEATHER
  TMP    - TEMPERATURE IN FAHRENHEIT
  DWPT   - DEWPOINT IN FAHRENHEIT
  RH     - RELATIVE HUMIDITY IN PERCENT
  WIND   - DIRECTION AND SPEED /MPH FOR ISLANDS...KTS FOR BUOYS/
  PRES   - MEAN SEA LEVEL PRESSURE IN INCHES OF HG
  VSB    - VISIBILITY IN MILES
  HX     - HEAT INDEX
  WCI    - WIND CHILL INDEX
  VRB    - VARIABLE WIND DIRECTION
  N/A    - NOT AVAILABLE




USA.gov is the U.S. government's official web portal to all federal, state and local government web resources and services.